Regional Weather Roundup
Issued by NWS

Home | Current Version | Previous Version | Graphics & Text | Print | Product List | Glossary On
Versions: 1 2 3 4 5 6 7 8 9 10 11 12 13 14 15 16 17 18 19 20 21 22 23 24 25 26 27 28 29 30 31 32 33 34 35 36 37 38 39 40 41 42 43 44 45 46 47 48 49 50
000
ASUS43 KOAX 221402
RWRNE

WEATHER ROUNDUP FOR NEBRASKA
NATIONAL WEATHER SERVICE OMAHA NE
900 AM CDT MON MAY 22 2017

NOTES: SATELLITE DATA IS BEING USED TO AUGMENT CLOUD COVER ABOVE
       12000 FEET.
       "FAIR" INDICATES FEW OR NO CLOUDS BELOW 12,000 FEET WITH NO
       SIGNIFICANT WEATHER AND/OR OBSTRUCTIONS TO VISIBILITY.

  * THESE STATIONS DO NOT REPORT WEATHER SUCH AS RAIN...SNOW OR FOG.

NEZ001>004-019>022-054>056-221500-
NEBRASKA PANHANDLE

CITY           SKY/WX    TMP DP  RH WIND       PRES   REMARKS
SCOTTSBLUFF    CLOUDY    47  32  56 NW9       30.10F
ALLIANCE       SUNNY     51  43  74 W16       30.05F
CHADRON        CLOUDY    49  41  74 W10       30.06F
GORDON         PTSUNNY   52  44  74 W8        30.03S
KIMBALL        SUNNY     50  39  64 W14       30.13F
SIDNEY         SUNNY     52  43  71 W9        30.11F
$$

NEZ057>060-069>072-079>082-221500-
SOUTHWEST NEBRASKA

CITY           SKY/WX    TMP DP  RH WIND       PRES   REMARKS
NORTH PLATTE   SUNNY     54  46  74 W9        30.06F
IMPERIAL       CLOUDY    56  45  66 W14       30.08F
LEXINGTON      CLOUDY    56  46  70 NW10      30.04F
MCCOOK         CLOUDY    55  48  77 W10       30.06F
OGALLALA       SUNNY     51  46  83 W9        30.08F
$$

NEZ005>010-023>029-035>040-094-221500-
NORTH CENTRAL NEBRASKA

CITY           SKY/WX    TMP DP  RH WIND       PRES   REMARKS
VALENTINE      MOSUNNY   58  42  55 NW13      30.00S
AINSWORTH      SUNNY     56  45  65 NW17      30.01R
BROKEN BOW     SUNNY     56  47  71 W10       30.02F
O`NEILL        SUNNY     58  44  58 W14       29.97S
ORD            SUNNY     56  45  66 W6        29.99F
$$

NEZ041-046>049-061>064-073>077-083>087-221500-
SOUTH CENTRAL NEBRASKA

CITY           SKY/WX    TMP DP  RH WIND       PRES   REMARKS
GRAND ISLAND   SUNNY     60  49  66 W10       30.01F
AURORA         CLOUDY   N/A N/A N/A W12       30.01S
HASTINGS       MOSUNNY   59  48  67 W12       30.02F
HEBRON         LGT RAIN  58  53  84 NW3       30.02F
HOLDREGE       MOSUNNY   57  47  67 NW8       30.04S
KEARNEY *      CLOUDY    59  45  58 NW12      30.03F
YORK           CLOUDY    59  48  67 NW16      30.00S
$$

NEZ011>018-030>034-042>045-221500-
NORTHEAST NEBRASKA

CITY           SKY/WX    TMP DP  RH WIND       PRES   REMARKS
NORFOLK        SUNNY     58  45  62 W12       29.95S
ALBION         SUNNY     57  46  65 W8        29.98F
BLAIR          CLOUDY    59  49  71 W10       29.96R
FREMONT        MOSUNNY   58  49  71 W13       29.96F
TEKAMAH        SUNNY     61  48  62 W13       29.93F
WAYNE          SUNNY     59  48  66 NW13      29.93F
$$

NEZ050>053-065>068-078-088>093-221500-
SOUTHEAST NEBRASKA

CITY           SKY/WX    TMP DP  RH WIND       PRES   REMARKS
LINCOLN        CLOUDY    59  50  72 W6        29.98F
OMAHA EPPLEY   CLOUDY    63  48  58 W8        29.95F
BEATRICE       CLOUDY    61  55  79 W12       30.00F
FALLS CITY     LGT RAIN  58  55  90 S5        30.00F
NEBRASKA CITY  PTSUNNY   60  52  73 SW10      29.99F
PLATTSMOUTH    CLOUDY    62  51  67 SW12      29.98R
$$

NEZ044-045-051>053-067-221500-
OMAHA AREA

CITY           SKY/WX    TMP DP  RH WIND       PRES   REMARKS
OMAHA EPPLEY   CLOUDY    63  48  58 W8        29.95F
BLAIR          CLOUDY    59  49  71 W10       29.96R
FREMONT        MOSUNNY   58  49  71 W13       29.96F
MILLARD        CLOUDY    62  51  67 W6        29.97S
PLATTSMOUTH    CLOUDY    62  51  67 SW12      29.98R
WAHOO          FAIR      60  48  65 W9        29.97S
$$




USA.gov is the U.S. government's official web portal to all federal, state and local government web resources and services.